This demonstration page uses our WeatherBlox Daily Observations layout. Learn more.

Hourly Observations for December 8, 2018

Temp ( °F °C ) Dew Point ( °F °C ) Humidity (%) Winds ( mph kmh ) Pressure ( in mb ) Visibility ( mi km ) Precip ( " mm )
12:15 am 00:15 Cloudy with Fog N/A N/A N/A Calm N/A 0.5 0.80467 0 0
12:35 am 00:35 Cloudy with Mist and Fog N/A N/A N/A Calm N/A 1.75 2.816345 0 0
12:55 am 00:55 Partly Cloudy N/A N/A N/A Calm N/A 10 16.0934 0 0
1:15 am 01:15 Clear N/A N/A N/A Calm N/A 10 16.0934 0 0
1:35 am 01:35 Clear N/A N/A N/A Calm N/A 10 16.0934 0 0
1:55 am 01:55 Clear N/A N/A N/A Calm N/A 10 16.0934 0 0
2:15 am 02:15 Clear N/A N/A N/A Calm N/A 10 16.0934 0 0
2:35 am 02:35 Clear N/A N/A N/A Calm N/A 10 16.0934 0 0
2:55 am 02:55 Mostly Cloudy N/A N/A N/A Calm N/A 10 16.0934 0 0
3:15 am 03:15 Mostly Cloudy N/A N/A N/A Calm N/A 10 16.0934 0 0
3:35 am 03:35 Cloudy with Mist and Fog N/A N/A N/A SSE 3 6 N/A 1 1.60934 0 0
3:55 am 03:55 Partly Cloudy with Mist and Fog N/A N/A N/A S 3 6 N/A 1.5 2.41401 0 0
4:15 am 04:15 Hazy N/A N/A N/A SSE 3 6 N/A 5 8.0467 0 0
4:35 am 04:35 Hazy N/A N/A N/A Calm N/A 4 6.43736 0 0
4:55 am 04:55 Hazy N/A N/A N/A Calm N/A 5 8.0467 0 0
5:15 am 05:15 Partly Cloudy with Mist and Fog N/A N/A N/A Calm N/A 1.75 2.816345 0 0
5:35 am 05:35 Mostly Cloudy with Mist and Fog N/A N/A N/A Calm N/A 2 3.21868 0 0
5:55 am 05:55 Hazy N/A N/A N/A Calm N/A 5 8.0467 0 0
6:15 am 06:15 Partly Cloudy with Mist and Fog N/A N/A N/A S 3 6 N/A 2 3.21868 0 0
6:35 am 06:35 Cloudy with Fog N/A N/A N/A Calm N/A 0.5 0.80467 0 0
6:55 am 06:55 Cloudy with Fog N/A N/A N/A S 3 6 N/A 0.5 0.80467 0 0
7:15 am 07:15 Cloudy with Mist and Fog N/A N/A N/A Calm N/A 1 1.60934 0 0
7:35 am 07:35 Cloudy with Fog N/A N/A N/A S 3 6 N/A 0.5 0.80467 0 0
7:55 am 07:55 Hazy N/A N/A N/A S 5 7 N/A 5 8.0467 0 0
8:15 am 08:15 Hazy N/A N/A N/A S 5 7 N/A 5 8.0467 0 0
8:35 am 08:35 Sunny N/A N/A N/A S 3 6 N/A 7 11.26538 0 0
8:55 am 08:55 Sunny N/A N/A N/A S 3 6 N/A 7 11.26538 0 0
9:15 am 09:15 Sunny N/A N/A N/A S 3 6 N/A 10 16.0934 0 0
9:35 am 09:35 Sunny N/A N/A N/A SSW 8 13 N/A 10 16.0934 0 0
9:55 am 09:55 Sunny N/A N/A N/A S 7 11 N/A 10 16.0934 0 0
10:15 am 10:15 Sunny N/A N/A N/A S 9 15 N/A 10 16.0934 0 0
10:35 am 10:35 Sunny N/A N/A N/A S 8 13 N/A 10 16.0934 0 0
10:55 am 10:55 Sunny N/A N/A N/A S 10 17 N/A 10 16.0934 0 0
11:15 am 11:15 Sunny N/A N/A N/A S 12 19 N/A 10 16.0934 0 0
11:35 am 11:35 Sunny N/A N/A N/A S 12 19 N/A 10 16.0934 0 0
11:55 am 11:55 Sunny N/A N/A N/A S 9 15 N/A 10 16.0934 0 0
12:15 pm 12:15 Sunny N/A N/A N/A S 10 17 N/A 10 16.0934 0 0
12:35 pm 12:35 Sunny 25 -4 25 -4 100 100 S 10 17 30.48 1032 10 16.0934 0 0
12:55 pm 12:55 Sunny 26 -3.3 25 -3.7 97 97 S 10 17 30.45 1031 10 16.0934 0 0
1:15 pm 13:15 Sunny 28 -2.4 25 -4 89 89 S 10 17 30.42 1030 10 16.0934 0 0
1:35 pm 13:35 Sunny 29 -1.7 24 -4.7 80 80 S 12 19 30.42 1030 10 16.0934 0 0
1:55 pm 13:55 Sunny 30 -1.2 24 -4.7 77 77 S 10 17 30.42 1030 10 16.0934 0 0
2:15 pm 14:15 Sunny 30 -1.1 23 -4.8 76 76 S 8 13 30.42 1030 10 16.0934 0 0
2:35 pm 14:35 Sunny 31 -0.8 24 -4.5 76 76 S 10 17 30.39 1029 10 16.0934 0 0
2:55 pm 14:55 Sunny 31 -0.6 24 -4.5 75 75 S 10 17 30.36 1028 10 16.0934 0 0
3:15 pm 15:15 Sunny 31 -0.8 24 -4.3 77 77 S 10 17 30.36 1028 10 16.0934 0 0
3:35 pm 15:35 Sunny 31 -0.8 24 -4.3 77 77 S 9 15 30.36 1028 10 16.0934 0 0
3:55 pm 15:55 Sunny 30 -1 24 -4.3 79 79 S 8 13 30.36 1028 10 16.0934 0 0
4:15 pm 16:15 Sunny 30 -1.2 25 -4 82 82 S 7 11 30.36 1028 10 16.0934 0 0
4:35 pm 16:35 Sunny 29 -1.7 24 -4.3 83 83 S 9 15 30.39 1029 10 16.0934 0 0
4:55 pm 16:55 Sunny 28 -2.2 24 -4.7 83 83 S 5 7 30.39 1029 10 16.0934 0 0
5:15 pm 17:15 Clear 26 -3.2 23 -5.1 87 87 S 3 6 30.42 1030 10 16.0934 0 0
5:35 pm 17:35 Clear 26 -3.5 23 -5.2 88 88 S 5 7 30.42 1030 10 16.0934 0 0
5:55 pm 17:55 Clear 25 -4.1 22 -5.6 89 89 S 9 15 30.39 1029 10 16.0934 0 0
6:15 pm 18:15 Clear 24 -4.6 21 -6.1 89 89 S 6 9 30.42 1030 10 16.0934 0 0
6:35 pm 18:35 Clear 23 -4.9 21 -6.3 90 90 S 6 9 30.45 1031 10 16.0934 0 0
6:55 pm 18:55 Clear 22 -5.7 19 -7 91 91 S 5 7 30.45 1031 10 16.0934 0 0
7:15 pm 19:15 Clear 22 -5.6 19 -7 90 90 S 7 11 30.45 1031 10 16.0934 0 0
7:35 pm 19:35 Clear 21 -6.1 19 -7.4 91 91 S 7 11 30.45 1031 10 16.0934 0 0
7:55 pm 19:55 Clear 22 -5.5 20 -6.8 91 91 S 8 13 30.45 1031 10 16.0934 0 0
8:15 pm 20:15 Clear 21 -6.2 18 -7.6 90 90 S 8 13 30.45 1031 10 16.0934 0 0
8:35 pm 20:35 Clear 23 -4.9 20 -6.7 87 87 S 9 15 30.45 1031 10 16.0934 0 0
8:55 pm 20:55 Clear 23 -5 20 -6.7 88 88 S 9 15 30.45 1031 10 16.0934 0 0
9:15 pm 21:15 Clear 23 -5 19 -7 86 86 S 10 17 30.45 1031 10 16.0934 0 0
9:35 pm 21:35 Clear 22 -5.5 19 -7.1 89 89 SSW 9 15 30.45 1031 10 16.0934 0 0
9:55 pm 21:55 Clear 23 -5.2 19 -7 87 87 SSW 9 15 30.45 1031 10 16.0934 0 0
10:15 pm 22:15 Clear 23 -5.1 19 -7 87 87 SSW 8 13 30.45 1031 10 16.0934 0 0
10:35 pm 22:35 Clear 23 -5 19 -7.1 85 85 SSW 8 13 30.45 1031 10 16.0934 0 0
10:55 pm 22:55 Clear 23 -5 19 -7.1 85 85 SSW 8 13 30.45 1031 10 16.0934 0 0
11:15 pm 23:15 Clear 22 -5.5 18 -7.6 85 85 SW 5 7 30.48 1032 10 16.0934 0 0
11:35 pm 23:35 Clear 22 -5.8 18 -7.7 87 87 SW 5 7 30.48 1032 10 16.0934 0 0
11:55 pm 23:55 Clear 21 -6.2 18 -7.9 88 88 SW 3 6 30.45 1031 10 16.0934 0 0

Powered by AerisWeather